Weather History for Detroit Metro, MI

Change the Weather History Date:

Friday, January 4, 2013

  Actual Average Record
Temperature  
Mean Temperature 26 °F 26 °F  
Max Temperature 30 °F 32 °F 61 °F (1997)
Min Temperature 22 °F 20 °F -12 °F (1981)
Degree Days  
Heating Degree Days 39 39  
Month to date heating degree days 173 156  
Since 1 July heating degree days 2292 2453  
Cooling Degree Days 0 0  
Month to date cooling degree days 0 0  
Year to date cooling degree days 0 0  
Moisture  
Dew Point 18 °F    
Average Humidity 68    
Maximum Humidity 78    
Minimum Humidity 58    
Precipitation  
Precipitation T in 0.07 in 1.59 in (1993)
Month to date precipitation T 0.29  
Year to date precipitation T 0.29  
Snow  
Snow T in 0.40 in 2.80 in (2004)
Month to date snowfall T 1.6  
Since 1 July snowfall 11.0 12.8  
Snow Depth 4.00 in    
Sea Level Pressure  
Sea Level Pressure 30.13 in    
Wind  
Wind Speed 16 mph (SW)    
Max Wind Speed 25 mph    
Max Gust Speed 32 mph    
Visibility 10 miles    
Events Snow    
T = Trace of Precipitation, MM = Missing Value Source: NWS Daily Summary

Daily Weather History Graph

Daily Weather History Graph

Search for Another Location

Airport:

Trip Planner

Search our weather history database for the weather conditions in past years. The results will help you decide how hot, cold, wet, or windy it might be!

Date:

Astronomy

Jan. 04, 2013 Rise Set
Actual Time 8:02 AM EST 5:14 PM EST
Civil Twilight 7:30 AM EST 5:46 PM EST
Nautical Twilight 6:55 AM EST 6:21 PM EST
Astronomical Twilight 6:21 AM EST 6:55 PM EST
Moon No Moon Rise 11:35 AM EST (1/4)
Length of Visible Light 10h 15m
Length of Day
9h 12m
Waning Gibbous, 55% of the Moon is Illuminated
Jan 4
Waning Gibbous
Jan 4
Last Quarter
Jan 11
New
Jan 18
First Quarter
Jan 26
Full

Hourly Weather History & Observations

Time (EST) Temp. Windchill Dew Point Humidity Pressure Visibility Wind Dir Wind Speed Gust Speed Precip Events Conditions
12:53 AM 28.9 °F 18.6 °F 21.9 °F 75% 30.17 in 8.0 mi SW 12.7 mph - 0.00 in Snow Light Snow
1:00 AM 28.4 °F 16.6 °F 21.2 °F 74% 30.14 in 8.0 mi SW 16.1 mph - 0.00 in Snow Light Snow
1:38 AM 28.4 °F 17.0 °F 21.2 °F 74% 30.13 in 8.0 mi SW 15.0 mph - 0.00 in Snow Light Snow
1:53 AM 28.9 °F 17.7 °F 21.0 °F 72% 30.16 in 8.0 mi SW 15.0 mph 23.0 mph 0.00 in Snow Light Snow
2:09 AM 28.4 °F 17.5 °F 21.2 °F 74% 30.13 in 9.0 mi SW 13.8 mph - 0.00 in Snow Light Snow
2:53 AM 28.0 °F 17.0 °F 21.0 °F 75% 30.15 in 10.0 mi SSW 13.8 mph - 0.00 in   Overcast
3:18 AM 28.4 °F 17.5 °F 21.2 °F 74% 30.12 in 10.0 mi SSW 13.8 mph - N/A   Overcast
3:53 AM 28.0 °F 16.5 °F 21.0 °F 75% 30.14 in 10.0 mi SSW 15.0 mph - N/A   Overcast
4:53 AM 28.0 °F 16.5 °F 21.0 °F 75% 30.13 in 10.0 mi SW 15.0 mph - N/A   Overcast
5:53 AM 28.0 °F 16.5 °F 19.9 °F 72% 30.12 in 10.0 mi SSW 15.0 mph - N/A   Overcast
6:53 AM 27.0 °F 14.3 °F 19.0 °F 72% 30.12 in 10.0 mi SW 17.3 mph - N/A   Overcast
7:23 AM 26.6 °F 13.8 °F 17.6 °F 69% 30.11 in 10.0 mi SW 17.3 mph 23.0 mph N/A   Overcast
7:53 AM 24.1 °F 10.6 °F 17.1 °F 75% 30.14 in 10.0 mi SSW 17.3 mph - N/A   Scattered Clouds
8:53 AM 21.9 °F 6.5 °F 15.1 °F 75% 30.13 in 9.0 mi SSW 20.7 mph - N/A   Scattered Clouds
9:53 AM 21.9 °F 6.5 °F 14.0 °F 72% 30.14 in 10.0 mi SSW 20.7 mph - N/A   Scattered Clouds
10:53 AM 24.1 °F 9.4 °F 15.1 °F 69% 30.14 in 10.0 mi SW 20.7 mph 25.3 mph N/A   Partly Cloudy
11:53 AM 26.1 °F 14.0 °F 16.0 °F 66% 30.12 in 10.0 mi SW 15.0 mph - N/A   Clear
12:53 PM 27.0 °F 13.2 °F 16.0 °F 63% 30.09 in 10.0 mi SW 20.7 mph 26.5 mph N/A   Clear
1:53 PM 28.0 °F 14.3 °F 17.1 °F 63% 30.07 in 10.0 mi SW 21.9 mph 27.6 mph N/A   Clear
2:53 PM 28.0 °F 14.6 °F 18.0 °F 66% 30.07 in 10.0 mi SW 20.7 mph - N/A   Clear
3:53 PM 28.0 °F 14.3 °F 17.1 °F 63% 30.09 in 10.0 mi SSW 21.9 mph - N/A   Clear
4:53 PM 28.0 °F 15.7 °F 17.1 °F 63% 30.09 in 10.0 mi SW 17.3 mph - N/A   Clear
5:53 PM 28.0 °F 14.9 °F 16.0 °F 61% 30.11 in 10.0 mi SW 19.6 mph - N/A   Clear
6:53 PM 27.0 °F 15.6 °F 16.0 °F 63% 30.15 in 10.0 mi SW 13.8 mph - N/A   Clear
7:53 PM 26.1 °F 13.1 °F 17.1 °F 69% 30.16 in 10.0 mi SW 17.3 mph - N/A   Clear
8:53 PM 25.0 °F 13.6 °F 17.1 °F 72% 30.17 in 10.0 mi SW 12.7 mph - N/A   Clear
9:53 PM 25.0 °F 14.8 °F 17.1 °F 72% 30.18 in 10.0 mi SW 10.4 mph - N/A   Clear
10:53 PM 24.1 °F 15.2 °F 17.1 °F 75% 30.20 in 10.0 mi SW 8.1 mph - N/A   Clear
11:53 PM 21.9 °F 11.0 °F 17.1 °F 82% 30.22 in 10.0 mi SSW 10.4 mph - N/A   Clear